Weather History for Waco, TX

Change the Weather History Date:

Friday, March 1, 2013

  Actual Average Record
Temperature  
Mean Temperature 44 °F 54 °F  
Max Temperature 62 °F 65 °F 88 °F (1940)
Min Temperature 25 °F 43 °F 21 °F (1980)
Degree Days  
Heating Degree Days 21 11  
Month to date heating degree days 21 11  
Since 1 July heating degree days 1587 1823  
Cooling Degree Days 0 0  
Month to date cooling degree days 0 0  
Year to date cooling degree days 17 9  
Moisture  
Dew Point 27 °F    
Average Humidity 58    
Maximum Humidity 88    
Minimum Humidity 27    
Precipitation  
Precipitation T in 0.11 in 1.28 in (1948)
Month to date precipitation T 0.11  
Year to date precipitation 7.15 4.86  
Snow  
Snow 0.00 in 0.00 in T in (1922)
Month to date snowfall 0.0  
Since 1 July snowfall T 0.9  
Snow Depth 0.00 in    
Sea Level Pressure  
Sea Level Pressure 30.25 in    
Wind  
Wind Speed 7 mph (NNW)    
Max Wind Speed 26 mph    
Max Gust Speed 32 mph    
Visibility 10 miles    
Events Rain    
T = Trace of Precipitation, MM = Missing Value Source: NWS Daily Summary

Daily Weather History Graph

Daily Weather History Graph

Search for Another Location

Airport:

Trip Planner

Search our weather history database for the weather conditions in past years. The results will help you decide how hot, cold, wet, or windy it might be!

Date:

Astronomy

Mar. 01, 2013 Rise Set
Actual Time 6:55 AM CST 6:27 PM CST
Civil Twilight 6:31 AM CST 6:51 PM CST
Nautical Twilight 6:02 AM CST 7:19 PM CST
Astronomical Twilight 5:34 AM CST 7:48 PM CST
Moon 10:41 PM CST (3/1) 9:01 AM CST (3/1)
Length of Visible Light 12h 20m
Length of Day
11h 31m
Waning Gibbous, 83% of the Moon is Illuminated
Mar 1
Waning Gibbous
Mar 4
Last Quarter
Mar 11
New
Mar 19
First Quarter
Mar 27
Full

Hourly Weather History & Observations

Time (CST) Temp. Windchill Dew Point Humidity Pressure Visibility Wind Dir Wind Speed Gust Speed Precip Events Conditions
12:51 AM 39.9 °F 35.1 °F 25.0 °F 55% 30.24 in 10.0 mi NNW 6.9 mph - N/A   Clear
1:51 AM 39.0 °F 33.4 °F 26.1 °F 60% 30.25 in 10.0 mi NNW 8.1 mph - N/A   Clear
2:51 AM 34.0 °F 31.0 °F 25.0 °F 70% 30.23 in 10.0 mi West 3.5 mph - N/A   Clear
3:51 AM 28.9 °F 21.9 °F 23.0 °F 78% 30.23 in 10.0 mi West 6.9 mph - N/A   Clear
4:51 AM 30.0 °F 26.5 °F 23.0 °F 75% 30.24 in 10.0 mi NW 3.5 mph - N/A   Clear
5:51 AM 25.0 °F 20.7 °F 21.0 °F 85% 30.25 in 10.0 mi SW 3.5 mph - N/A   Clear
6:51 AM 28.0 °F 21.7 °F 24.1 °F 85% 30.26 in 10.0 mi West 5.8 mph - N/A   Clear
7:51 AM 33.1 °F 30.0 °F 27.0 °F 78% 30.29 in 10.0 mi West 3.5 mph - N/A   Clear
8:51 AM 42.1 °F 38.4 °F 28.9 °F 60% 30.32 in 10.0 mi North 5.8 mph - N/A   Clear
9:51 AM 46.9 °F - 28.9 °F 50% 30.32 in 10.0 mi North 9.2 mph - N/A   Clear
10:51 AM 48.9 °F - 26.1 °F 41% 30.30 in 10.0 mi North 4.6 mph - N/A   Clear
11:51 AM 54.0 °F - 27.0 °F 35% 30.28 in 10.0 mi North 4.6 mph - N/A   Scattered Clouds
12:51 PM 55.9 °F - 27.0 °F 33% 30.25 in 10.0 mi NNE 5.8 mph - N/A   Clear
1:51 PM 59.0 °F - 26.1 °F 28% 30.20 in 10.0 mi Calm Calm - N/A   Clear
2:51 PM 60.1 °F - 26.1 °F 27% 30.17 in 10.0 mi NE 6.9 mph - N/A   Scattered Clouds
3:51 PM 52.0 °F - 34.0 °F 50% 30.21 in 10.0 mi North 27.6 mph 32.2 mph 0.00 in Rain Light Rain
4:51 PM 55.9 °F - 33.1 °F 42% 30.19 in 10.0 mi NNE 8.1 mph - 0.00 in   Scattered Clouds
5:51 PM 54.0 °F - 35.1 °F 49% 30.19 in 10.0 mi Calm Calm - N/A   Mostly Cloudy
6:51 PM 52.0 °F - 28.9 °F 41% 30.21 in 10.0 mi NE 11.5 mph - N/A   Overcast
7:51 PM 50.0 °F - 28.0 °F 43% 30.22 in 10.0 mi NNW 8.1 mph - N/A   Partly Cloudy
8:51 PM 45.0 °F 41.8 °F 28.9 °F 53% 30.26 in 10.0 mi NNE 5.8 mph - N/A   Partly Cloudy
9:51 PM 44.1 °F 39.0 °F 28.9 °F 55% 30.28 in 10.0 mi North 9.2 mph - N/A   Clear
10:51 PM 43.0 °F 38.8 °F 28.9 °F 58% 30.30 in 10.0 mi NNW 6.9 mph - N/A   Clear
11:51 PM 39.9 °F 35.1 °F 28.9 °F 65% 30.30 in 10.0 mi NW 6.9 mph - N/A   Clear